DW0117 Weather Reports


time (UTC)temp
F
wind
direction
speed
knots
gust
knots
rain 1hr
in
rain 24hr
in
rain mn
in
humidity
%
barometer
mb
20260506185956 72 237 0.0 3.5 0.00 0.00 0.00 51 1018.0
20260506185455 72 245 0.0 4.3 0.00 0.00 0.00 51 1017.9
20260506184956 71 253 0.0 4.3 0.00 0.00 0.00 51 1017.9
20260506184455 71 258 0.0 2.6 0.00 0.00 0.00 50 1018.0
20260506183955 70 249 0.0 6.1 0.00 0.00 0.00 50 1018.0
20260506183456 70 247 0.0 6.1 0.00 0.00 0.00 50 1018.1
20260506182455 70 246 0.0 2.6 0.00 0.00 0.00 53 1018.1
20260506181956 69 247 0.0 2.6 0.00 0.00 0.00 53 1018.2
20260506181455 69 249 0.0 2.6 0.00 0.00 0.00 52 1018.1
20260506180956 69 0 0.0 0.0 0.00 0.00 0.00 52 1018.2
20260506180455 69 0 0.0 0.0 0.00 0.00 0.00 52 1018.3
20260506175956 69 0 0.0 0.0 0.00 0.00 0.00 51 1018.2
20260506175455 68 246 0.0 0.9 0.00 0.00 0.00 53 1018.3
20260506174956 68 245 0.0 2.6 0.00 0.00 0.00 54 1018.3
20260506174455 68 247 0.0 2.6 0.00 0.00 0.00 54 1018.3
20260506173956 68 248 0.0 2.6 0.00 0.00 0.00 56 1018.3
20260506173455 67 247 0.0 2.6 0.00 0.00 0.00 56 1018.3
20260506172955 67 252 0.0 2.6 0.00 0.00 0.00 57 1018.3
20260506172456 67 252 0.0 2.6 0.00 0.00 0.00 58 1018.5
20260506171956 66 0 0.0 0.0 0.00 0.00 0.00 59 1018.5
20260506171455 66 227 0.0 3.5 0.00 0.00 0.00 59 1018.5
20260506170956 66 227 0.0 3.5 0.00 0.00 0.00 60 1018.5
20260506165956 65 0 0.0 0.0 0.00 0.00 0.00 64 1018.6
20260506164955 63 0 0.0 0.0 0.00 0.00 0.00 65 1018.8
20260506164456 63 0 0.0 0.0 0.00 0.00 0.00 68 1018.6
20260506163955 62 0 0.0 0.0 0.00 0.00 0.00 71 1018.7
20260506163455 61 0 0.0 0.0 0.00 0.00 0.00 73 1018.8
20260506162455 60 0 0.0 0.0 0.00 0.00 0.00 77 1018.8
20260506161956 59 0 0.0 0.0 0.00 0.00 0.00 78 1018.8
20260506160955 58 0 0.0 0.0 0.00 0.00 0.00 82 1018.9
20260506160455 58 0 0.0 0.0 0.00 0.00 0.00 84 1019.0
20260506155956 57 0 0.0 0.0 0.00 0.00 0.00 85 1019.0
20260506155455 57 0 0.0 0.0 0.00 0.00 0.00 87 1019.0
20260506154456 56 0 0.0 0.0 0.00 0.00 0.00 90 1019.1
20260506153955 55 0 0.0 0.0 0.00 0.00 0.00 91 1019.2
20260506153455 54 0 0.0 0.0 0.00 0.00 0.00 92 1019.2
20260506152956 54 0 0.0 0.0 0.00 0.00 0.00 93 1019.2
20260506152455 54 0 0.0 0.0 0.00 0.00 0.00 93 1019.1
20260506151956 54 0 0.0 0.0 0.00 0.00 0.00 94 1019.2
20260506151456 53 0 0.0 0.0 0.00 0.00 0.00 94 1019.2
20260506150455 52 0 0.0 0.0 0.00 0.00 0.00 94 1019.3
20260506145956 52 0 0.0 0.0 0.00 0.00 0.00 94 1019.3
20260506144956 51 0 0.0 0.0 0.00 0.00 0.00 94 1019.3
20260506144456 51 0 0.0 0.0 0.00 0.00 0.00 94 1019.3
20260506143956 50 0 0.0 0.0 0.00 0.00 0.00 94 1019.3
20260506143456 50 0 0.0 0.0 0.00 0.00 0.00 94 1019.3
20260506142956 50 0 0.0 0.0 0.00 0.00 0.00 94 1019.3
20260506142456 50 0 0.0 0.0 0.00 0.00 0.00 94 1019.2
20260506141956 50 0 0.0 0.0 0.00 0.00 0.00 94 1019.3
20260506141456 50 0 0.0 0.0 0.00 0.00 0.00 94 1019.3
20260506140955 50 0 0.0 0.0 0.00 0.00 0.00 93 1019.3
20260506140456 49 0 0.0 0.0 0.00 0.00 0.00 93 1019.3
20260506135956 49 0 0.0 0.0 0.00 0.00 0.00 94 1019.2
20260506135455 49 0 0.0 0.0 0.00 0.00 0.00 93 1019.1
20260506134956 49 0 0.0 0.0 0.00 0.00 0.00 93 1019.1
20260506134456 49 0 0.0 0.0 0.00 0.00 0.00 93 1018.9
20260506133956 49 0 0.0 0.0 0.00 0.00 0.00 93 1018.9
20260506133455 49 0 0.0 0.0 0.00 0.00 0.00 93 1018.8
20260506132956 49 0 0.0 0.0 0.00 0.00 0.00 93 1018.7
20260506132456 49 0 0.0 0.0 0.00 0.00 0.00 93 1018.6
20260506131456 49 0 0.0 0.0 0.00 0.00 0.00 93 1018.5
20260506130955 49 0 0.0 0.0 0.00 0.00 0.00 93 1018.5
20260506130457 49 0 0.0 0.0 0.00 0.00 0.00 92 1018.4
20260506125956 49 0 0.0 0.0 0.00 0.00 0.00 92 1018.4
20260506125456 49 0 0.0 0.0 0.00 0.00 0.00 92 1018.4
20260506124455 49 0 0.0 0.0 0.00 0.00 0.00 92 1018.3
20260506123456 50 0 0.0 0.0 0.00 0.00 0.00 92 1018.2
20260506122956 50 0 0.0 0.0 0.00 0.00 0.00 92 1018.1
20260506121955 50 0 0.0 0.0 0.00 0.00 0.00 92 1018.2
20260506121456 50 0 0.0 0.0 0.00 0.00 0.00 92 1018.1
20260506120956 50 0 0.0 0.0 0.00 0.00 0.00 92 1018.2
20260506115456 50 0 0.0 0.0 0.00 0.00 0.00 92 1018.1
20260506114955 51 0 0.0 0.0 0.00 0.00 0.00 92 1018.1
20260506114456 51 0 0.0 0.0 0.00 0.00 0.00 92 1018.1
20260506113956 51 0 0.0 0.0 0.00 0.00 0.00 92 1018.0
20260506113456 51 0 0.0 0.0 0.00 0.00 0.00 92 1018.0
20260506112956 51 0 0.0 0.0 0.00 0.00 0.00 91 1018.0
20260506112455 51 0 0.0 0.0 0.00 0.00 0.00 91 1018.0
20260506111956 52 0 0.0 0.0 0.00 0.00 0.00 92 1017.8
20260506111456 52 0 0.0 0.0 0.00 0.00 0.00 92 1017.7
20260506110956 52 0 0.0 0.0 0.00 0.00 0.00 91 1017.8
20260506110456 52 0 0.0 0.0 0.00 0.00 0.00 91 1017.7
20260506105456 52 0 0.0 0.0 0.00 0.00 0.00 91 1017.6
20260506104456 52 0 0.0 0.0 0.00 0.00 0.00 91 1017.5
20260506103956 53 0 0.0 0.0 0.00 0.00 0.00 91 1017.5
20260506103456 53 0 0.0 0.0 0.00 0.00 0.00 91 1017.6
20260506102956 53 0 0.0 0.0 0.00 0.00 0.00 91 1017.3
20260506102457 53 0 0.0 0.0 0.00 0.00 0.00 91 1017.4
20260506101956 53 0 0.0 0.0 0.00 0.00 0.00 91 1017.4
20260506101456 53 0 0.0 0.0 0.00 0.00 0.00 91 1017.4
20260506100956 53 0 0.0 0.0 0.00 0.00 0.00 91 1017.5
20260506100456 53 0 0.0 0.0 0.00 0.00 0.00 91 1017.5
20260506095956 53 0 0.0 0.0 0.00 0.00 0.00 91 1017.3
20260506095456 53 0 0.0 0.0 0.00 0.00 0.00 91 1017.3
20260506094956 53 0 0.0 0.0 0.00 0.00 0.00 91 1017.3
20260506094456 53 0 0.0 0.0 0.00 0.00 0.00 91 1017.3
20260506093956 53 0 0.0 0.0 0.00 0.00 0.00 91 1017.4
20260506092956 53 0 0.0 0.0 0.00 0.00 0.00 91 1017.3
20260506092456 53 0 0.0 0.0 0.00 0.00 0.00 91 1017.3
20260506091956 54 0 0.0 0.0 0.00 0.00 0.00 91 1017.3
20260506091456 54 0 0.0 0.0 0.00 0.00 0.00 90 1017.3
20260506090956 54 0 0.0 0.0 0.00 0.00 0.00 90 1017.4
20260506085956 54 0 0.0 0.0 0.00 0.00 0.00 90 1017.5
20260506085457 54 0 0.0 0.0 0.00 0.00 0.00 90 1017.4
20260506084956 54 0 0.0 0.0 0.00 0.00 0.00 89 1017.4
20260506084457 54 0 0.0 0.0 0.00 0.00 0.00 89 1017.4
20260506083956 54 0 0.0 0.0 0.00 0.00 0.00 90 1017.4
20260506083456 54 0 0.0 0.0 0.00 0.00 0.00 90 1017.3
20260506082957 54 0 0.0 0.0 0.00 0.00 0.00 89 1017.4
20260506082456 54 0 0.0 0.0 0.00 0.00 0.00 89 1017.4
20260506081456 54 0 0.0 0.0 0.00 0.00 0.00 89 1017.4
20260506080956 54 0 0.0 0.0 0.00 0.00 0.00 89 1017.3
20260506080457 54 0 0.0 0.0 0.00 0.00 0.00 89 1017.3
20260506073457 55 0 0.0 0.0 0.00 0.00 0.00 89 1017.2
20260506072956 55 0 0.0 0.0 0.00 0.00 0.00 89 1017.2
20260506072456 55 0 0.0 0.0 0.00 0.00 0.00 89 1017.3
20260506071956 54 0 0.0 0.0 0.00 0.00 0.00 89 1017.1
20260506070956 54 0 0.0 0.0 0.00 0.00 0.00 89 1016.9
20260506070457 54 0 0.0 0.0 0.00 0.00 0.00 89 1016.9
20260506062456 54 0 0.0 0.0 0.00 0.00 0.00 89 1016.7
20260506061457 54 0 0.0 0.0 0.00 0.00 0.00 88 1016.6
20260506060957 54 0 0.0 0.0 0.00 0.00 0.00 88 1016.6
20260506060456 54 0 0.0 0.0 0.00 0.00 0.00 88 1016.6
20260506050957 57 0 0.0 0.0 0.00 0.00 0.00 85 1015.8
20260506044457 57 0 0.0 0.0 0.00 0.00 0.00 84 1015.7
20260506043957 58 0 0.0 0.0 0.00 0.00 0.00 84 1015.6
20260506042957 58 0 0.0 0.0 0.00 0.00 0.00 84 1015.6
20260506041957 58 0 0.0 0.0 0.00 0.00 0.00 83 1015.4
20260506041457 58 0 0.0 0.0 0.00 0.00 0.00 83 1015.2
20260506040957 58 0 0.0 0.0 0.00 0.00 0.00 82 1015.2
20260506040457 59 0 0.0 0.0 0.00 0.00 0.00 82 1015.2
20260506035957 59 0 0.0 0.0 0.00 0.00 0.00 81 1015.2
20260506034957 60 0 0.0 0.0 0.00 0.00 0.00 80 1015.1
20260506034457 60 0 0.0 0.0 0.00 0.00 0.00 80 1015.0
20260506033957 60 0 0.0 0.0 0.00 0.00 0.00 79 1014.9
20260506033457 60 0 0.0 0.0 0.00 0.00 0.00 79 1014.8
20260506032958 61 0 0.0 0.0 0.00 0.00 0.00 79 1014.7
20260506032457 61 0 0.0 0.0 0.00 0.00 0.00 78 1014.5
20260506031957 61 0 0.0 0.0 0.00 0.00 0.00 78 1014.4
20260506031457 61 0 0.0 0.0 0.00 0.00 0.00 78 1014.3
20260506030957 61 0 0.0 0.0 0.00 0.00 0.00 77 1014.3
20260506030457 61 0 0.0 0.0 0.00 0.00 0.00 76 1014.3
20260506025957 62 0 0.0 0.0 0.00 0.00 0.00 76 1014.3
20260506025457 62 0 0.0 0.0 0.00 0.00 0.00 75 1014.2
20260506024957 62 0 0.0 0.0 0.00 0.00 0.00 75 1014.2
20260506024458 62 0 0.0 0.0 0.00 0.00 0.00 75 1014.1
20260506023957 62 0 0.0 0.0 0.00 0.00 0.00 74 1014.1
20260506023457 62 0 0.0 0.0 0.00 0.00 0.00 73 1014.0
20260506022458 63 0 0.0 0.0 0.00 0.00 0.00 73 1013.8
20260506021957 63 0 0.0 0.0 0.00 0.00 0.00 72 1013.9
20260506021456 63 0 0.0 0.0 0.00 0.00 0.00 71 1013.9
20260506020957 63 0 0.0 0.0 0.00 0.00 0.00 71 1013.7
20260506020457 63 0 0.0 0.0 0.00 0.00 0.00 70 1013.7
20260506015957 63 0 0.0 0.0 0.00 0.00 0.00 70 1013.7
20260506014957 64 0 0.0 0.0 0.00 0.00 0.00 71 1013.6
20260506014457 64 0 0.0 0.0 0.00 0.00 0.00 70 1013.6
20260506013958 64 0 0.0 0.0 0.00 0.00 0.00 70 1013.6
20260506013457 64 0 0.0 0.0 0.00 0.00 0.00 71 1013.6
20260506012957 64 0 0.0 0.0 0.00 0.00 0.00 70 1013.6
20260506011957 64 0 0.0 0.0 0.00 0.00 0.00 68 1013.7
20260506011457 64 0 0.0 0.0 0.00 0.00 0.00 68 1013.7
20260506010956 65 0 0.0 0.0 0.00 0.00 0.00 66 1013.7
20260506010457 65 0 0.0 0.0 0.00 0.00 0.00 66 1013.6
20260506005957 65 0 0.0 0.0 0.00 0.00 0.00 68 1013.5
20260506004957 64 0 0.0 0.0 0.00 0.00 0.00 69 1013.6
20260506004457 64 0 0.0 0.0 0.00 0.00 0.00 71 1013.7
20260506003958 64 0 0.0 0.0 0.00 0.00 0.00 71 1013.7
20260506003457 63 0 0.0 0.0 0.00 0.00 0.00 71 1013.7
20260506002958 63 0 0.0 0.0 0.00 0.00 0.00 72 1013.7
20260506002457 63 0 0.0 0.0 0.00 0.00 0.00 72 1013.7
20260506001957 62 0 0.0 0.0 0.00 0.00 0.00 73 1013.7
20260506001457 62 0 0.0 0.0 0.00 0.00 0.00 72 1013.8
20260506000957 62 0 0.0 0.0 0.00 0.00 0.00 73 1013.7
20260506000457 61 0 0.0 0.0 0.00 0.00 0.00 76 1013.7
20260505235457 61 0 0.0 0.0 0.00 0.00 0.00 80 1013.8
20260505234958 60 0 0.0 0.0 0.00 0.00 0.00 81 1013.9
20260505234457 60 0 0.0 0.0 0.00 0.00 0.00 83 1014.0
20260505233457 60 0 0.0 0.0 0.00 0.00 0.00 84 1014.2
20260505232957 60 0 0.0 0.0 0.00 0.00 0.00 85 1014.3
20260505232457 59 0 0.0 0.0 0.00 0.00 0.00 84 1014.3
20260505231958 59 0 0.0 0.0 0.00 0.00 0.00 84 1014.4
20260505231457 59 0 0.0 0.0 0.00 0.00 0.00 83 1014.5
20260505230957 60 0 0.0 0.0 0.00 0.00 0.00 82 1014.6
20260505230457 60 0 0.0 0.0 0.00 0.00 0.00 81 1014.5
20260505225957 60 0 0.0 0.0 0.00 0.00 0.00 81 1014.5
20260505225457 60 0 0.0 0.0 0.00 0.00 0.00 81 1014.6
20260505224957 60 0 0.0 0.0 0.00 0.00 0.00 81 1014.5
20260505224457 60 0 0.0 0.0 0.00 0.00 0.00 82 1014.4
20260505223957 60 0 0.0 0.0 0.00 0.00 0.00 81 1014.4
20260505223457 61 0 0.0 0.0 0.00 0.00 0.00 81 1014.4
20260505222957 61 0 0.0 0.0 0.00 0.00 0.00 79 1014.4
20260505222458 61 0 0.0 0.0 0.00 0.00 0.00 78 1014.4
20260505221957 61 0 0.0 0.0 0.00 0.00 0.00 77 1014.4
20260505221458 61 0 0.0 0.0 0.00 0.00 0.00 77 1014.4
20260505220957 61 0 0.0 0.0 0.00 0.00 0.00 76 1014.4
20260505220458 62 0 0.0 0.0 0.00 0.00 0.00 75 1014.3
20260505215957 62 0 0.0 0.0 0.00 0.00 0.00 75 1014.4
20260505215457 62 0 0.0 0.0 0.00 0.00 0.00 75 1014.4
20260505214457 62 0 0.0 0.0 0.00 0.00 0.00 74 1014.5
20260505213957 62 0 0.0 0.0 0.00 0.00 0.00 74 1014.4
20260505213457 62 0 0.0 0.0 0.00 0.00 0.00 74 1014.4
20260505212457 62 0 0.0 0.0 0.00 0.00 0.00 74 1014.4
20260505211957 62 0 0.0 0.0 0.00 0.00 0.00 74 1014.4
20260505210958 62 0 0.0 0.0 0.00 0.00 0.00 72 1014.3
20260505205957 62 0 0.0 0.0 0.00 0.00 0.00 72 1014.2
20260505204957 62 0 0.0 0.0 0.00 0.00 0.00 73 1014.1
20260505204458 61 0 0.0 0.0 0.00 0.00 0.00 72 1014.1
20260505203957 61 0 0.0 0.0 0.00 0.00 0.00 73 1014.1
20260505203458 61 0 0.0 0.0 0.00 0.00 0.00 73 1014.0
20260505202458 61 0 0.0 0.0 0.00 0.00 0.00 73 1014.0
20260505195957 62 244 0.0 6.1 0.00 0.00 0.00 72 1013.9
20260505195458 62 251 0.0 6.1 0.00 0.00 0.00 71 1013.8
20260505194958 62 0 0.0 0.0 0.00 0.00 0.00 71 1013.8
20260505194458 62 0 0.0 0.0 0.00 0.00 0.00 71 1013.8
20260505193957 62 0 0.0 0.0 0.00 0.00 0.00 70 1013.8
20260505193458 62 0 0.0 0.0 0.00 0.00 0.00 70 1013.8
20260505192957 62 0 0.0 0.0 0.00 0.00 0.00 70 1013.8
20260505192457 62 0 0.0 0.0 0.00 0.00 0.00 70 1013.8
20260505191958 62 0 0.0 0.0 0.00 0.00 0.00 70 1013.7
20260505191458 62 0 0.0 0.0 0.00 0.00 0.00 70 1013.8
20260505190958 62 0 0.0 0.0 0.00 0.00 0.00 71 1013.8